Location: Huntsville
(41.2590°N, 111.7678°W)
Time: 23:09:59
(UTC+00:00)

ISS - Pass Details

Date: 07 December 2021
Orbit: 413 x 422 km, 51.6° (Epoch: 25 January)

Event Time Altitude Azimuth Distance (km) Brightness Sun altitude
Rises 02:11:29 0° 296° (WNW) 2,380 0.9 -24.4°
Reaches altitude 10° 02:13:49 10° 283° (WNW) 1,509 0.0 -24.8°
Maximum altitude 02:16:39 25° 226° (SW) 891 -1.6 -25.3°
Enters shadow 02:16:53 25° 219° (SW) 896 -1.7 -25.4°
